Date,TemperatureHighF,TemperatureAvgF,TemperatureLowF,DewpointHighF,DewpointAvgF,DewpointLowF,HumidityHigh,HumidityAvg,HumidityLow,PressureMaxIn,PressureMinIn,WindSpeedMaxMPH,WindSpeedAvgMPH,GustSpeedMaxMPH,PrecipitationSumIn
2013-1-1,30.7,23.2,13.5,24.1,14.9,9.1,85,70,56,30.14,30.00,13,2,13,0.00
2013-1-2,25.0,18.4,9.0,19.2,14.1,6.4,91,83,76,30.20,30.07,11,2,11,0.00
2013-1-3,30.0,22.9,16.0,26.2,17.6,8.1,88,80,70,30.17,30.06,16,5,19,0.00
2013-1-4,29.3,26.0,21.7,25.7,20.5,16.9,87,79,69,30.18,30.03,24,8,24,0.00
2013-1-5,33.6,26.6,18.7,31.6,23.0,16.7,95,86,74,30.29,30.02,17,2,18,0.01
2013-1-6,36.7,34.4,33.3,32.9,30.9,28.0,94,87,81,30.24,29.90,17,4,20,0.02
2013-1-7,36.1,32.4,28.9,28.0,26.0,24.1,84,77,69,30.37,30.15,25,4,29,0.00
2013-1-8,38.3,31.1,25.9,29.1,26.3,22.3,90,82,68,30.25,30.15,12,1,12,0.00
2013-1-9,47.1,39.8,30.7,35.4,30.3,25.5,92,70,44,30.43,30.01,25,6,27,0.00
2013-1-10,39.9,33.7,25.0,33.8,28.8,22.6,94,82,68,30.56,30.17,12,1,12,0.02
2013-1-11,58.1,46.2,36.1,52.5,43.6,33.6,97,91,78,30.17,29.74,20,3,22,0.59
2013-1-12,59.4,51.8,45.1,52.7,48.5,43.9,97,89,78,29.90,29.79,18,3,18,0.00
2013-1-13,51.1,40.7,33.3,50.4,39.2,30.7,98,94,90,30.01,29.67,17,3,18,0.70
2013-1-14,33.1,26.0,18.9,30.7,20.3,15.8,91,79,67,30.42,30.01,20,4,23,0.04
2013-1-15,31.5,22.8,14.2,22.1,18.2,12.2,93,83,61,30.44,30.13,7,0,8,0.00
2013-1-16,37.2,29.3,20.7,27.9,22.4,19.0,95,77,53,30.13,29.81,20,4,22,0.00
2013-1-17,37.6,31.9,20.8,30.0,22.6,7.2,82,69,53,30.29,29.94,16,4,20,0.00
2013-1-18,36.9,27.4,19.4,25.2,16.5,8.6,75,63,55,30.44,29.99,21,5,27,0.00
2013-1-19,47.5,42.0,36.3,35.8,30.9,25.0,77,65,58,29.98,29.57,23,10,31,0.00
2013-1-20,43.9,24.8,18.1,35.8,12.6,5.9,77,59,48,30.17,29.54,33,10,45,0.00
2013-1-21,19.6,15.0,6.3,16.0,8.5,-0.2,89,75,63,30.14,29.95,15,5,19,0.00
2013-1-22,10.6,5.9,-0.6,5.9,-1.7,-7.4,85,71,57,30.30,30.12,15,4,22,0.00
2013-1-23,17.4,11.9,5.4,12.2,6.2,1.0,89,78,66,30.30,30.09,13,3,17,0.00
2013-1-24,20.7,15.1,10.8,12.0,6.6,0.9,89,70,45,30.58,30.11,8,2,13,0.00
2013-1-25,20.8,18.4,14.7,17.8,13.8,7.3,92,82,62,30.50,30.02,8,1,11,0.00
2013-1-26,27.0,22.5,18.0,19.2,16.4,13.1,93,78,59,30.45,30.05,11,2,15,0.00
2013-1-27,29.8,22.0,10.9,28.0,17.9,8.6,95,85,66,30.48,30.12,13,3,16,0.00
2013-1-28,46.8,39.4,29.8,46.0,38.4,27.9,98,96,92,30.16,29.83,14,3,18,0.45
2013-1-29,57.6,48.3,36.3,55.6,47.1,35.6,99,96,91,30.00,29.45,14,3,21,0.35
2013-1-30,61.2,51.5,34.9,57.0,49.1,30.2,97,92,83,29.45,29.07,25,6,32,0.25
2013-1-31,34.5,23.8,16.7,28.9,17.3,12.7,91,76,62,29.87,29.20,33,11,41,0.09
2013-2-1,18.7,15.7,11.1,14.0,9.9,4.1,89,78,66,30.28,29.87,19,6,22,0.00
2013-2-2,23.5,18.2,14.2,20.3,14.3,8.1,91,85,75,30.24,29.94,11,4,16,0.00
2013-2-3,22.3,15.1,6.4,18.3,9.9,3.7,90,80,64,30.02,29.85,18,3,24,0.00
2013-2-4,24.6,20.3,17.8,20.8,16.9,9.1,92,87,68,30.03,29.87,5,0,8,0.01
2013-2-5,27.5,22.5,16.9,25.7,19.1,14.9,93,87,68,29.94,29.81,12,2,16,0.00
2013-2-6,30.9,25.0,14.5,26.2,18.5,12.2,93,77,56,30.30,29.94,13,1,16,0.01
2013-2-7,38.5,30.6,25.3,29.1,25.0,19.8,87,80,69,30.28,29.84,13,3,17,0.01
2013-2-8,31.5,28.3,24.4,30.2,24.7,18.3,96,86,76,30.32,29.73,16,4,21,0.06
2013-2-9,30.6,22.6,10.2,21.9,17.9,7.9,93,83,64,30.44,30.29,8,1,11,0.07
2013-2-10,40.6,31.7,21.0,37.8,26.6,19.0,94,82,67,30.30,29.68,12,2,16,0.07
2013-2-11,46.0,39.0,32.9,43.2,32.7,26.1,94,78,68,29.85,29.55,25,10,36,0.08
2013-2-12,33.8,32.1,29.1,26.4,25.1,22.5,78,75,70,30.03,29.86,16,5,21,0.00
2013-2-13,37.9,30.6,27.1,28.0,24.5,21.6,90,78,63,29.91,29.72,9,1,10,0.00
2013-2-14,40.8,35.2,28.8,36.9,31.1,26.2,92,85,72,29.82,29.67,18,4,26,0.01
2013-2-15,36.1,29.6,25.0,29.3,19.7,14.0,81,67,53,30.10,29.82,18,4,21,0.00
2013-2-16,26.4,21.5,17.2,23.5,15.7,11.1,92,78,60,30.09,29.96,11,2,18,0.01
2013-2-17,23.7,17.5,10.6,15.4,9.3,6.3,90,71,50,30.22,30.04,12,2,16,0.00
2013-2-18,45.1,30.7,13.3,35.6,22.6,7.7,82,72,61,30.22,29.61,15,4,19,0.00
2013-2-19,45.5,29.3,19.6,41.5,23.8,12.9,94,80,67,29.92,29.42,24,11,34,0.17
2013-2-20,23.2,20.9,17.8,16.3,12.3,7.3,80,69,60,30.23,29.92,21,7,25,0.00
2013-2-21,26.8,22.6,21.2,18.3,15.6,13.8,83,75,62,30.38,30.23,12,3,17,0.00
2013-2-22,35.1,28.6,22.6,34.2,26.4,18.3,97,92,81,30.27,29.88,16,4,21,0.00
2013-2-23,34.9,30.9,24.8,33.1,23.7,18.9,93,75,66,29.90,29.85,16,5,19,0.05
2013-2-24,36.3,29.7,23.7,27.7,23.7,19.8,88,78,63,30.13,29.88,12,2,16,0.02
2013-2-25,39.4,30.8,18.3,29.5,23.9,16.7,95,77,56,30.21,30.07,11,1,11,0.00
2013-2-26,34.5,32.0,28.4,32.9,28.2,23.0,97,86,74,30.11,29.49,24,5,25,0.74
2013-2-27,36.7,34.5,33.1,35.2,33.2,32.0,98,95,89,29.57,29.42,18,2,18,0.70
2013-2-28,38.5,34.2,30.7,34.7,30.9,26.2,97,88,77,29.93,29.53,17,3,17,0.28
2013-3-1,30.7,27.9,26.1,26.4,22.9,20.7,84,81,78,30.09,29.92,15,4,16,0.00
2013-3-2,28.2,26.2,24.6,22.6,20.7,16.7,86,79,70,30.06,30.02,13,3,13,0.00
2013-3-3,30.9,24.4,18.3,20.1,17.2,14.7,88,75,54,30.04,29.97,18,3,21,0.00
2013-3-4,36.5,25.3,15.6,21.6,16.8,12.9,90,72,44,30.14,30.04,10,1,10,0.00
2013-3-5,34.5,28.1,22.1,27.0,23.1,19.6,91,81,70,30.12,29.80,21,4,24,0.00
2013-3-6,41.4,34.7,28.2,31.3,28.4,23.7,87,78,66,30.18,29.80,15,3,17,0.00
2013-3-7,39.4,34.3,28.0,32.2,27.6,19.8,89,77,59,30.37,30.17,13,2,13,0.00
2013-3-8,45.3,32.8,23.4,31.3,24.8,19.0,91,73,53,30.48,30.36,10,0,10,0.00
2013-3-9,42.8,34.6,24.3,33.3,29.1,22.5,96,81,63,30.40,30.02,14,2,14,0.00
2013-3-10,64.6,52.1,36.9,48.0,39.4,32.9,86,63,49,30.02,29.75,16,2,19,0.01
2013-3-11,55.6,49.3,38.1,48.9,43.7,33.1,95,81,60,29.78,29.43,24,6,29,0.28
2013-3-12,38.1,35.2,31.3,34.0,30.3,26.4,92,82,72,29.91,29.66,22,7,23,0.00
2013-3-13,32.5,29.9,26.8,28.8,22.4,15.6,92,74,57,30.17,29.83,24,7,25,0.00
2013-3-14,41.4,31.8,23.5,23.9,19.2,14.5,78,60,43,30.25,30.06,18,3,20,0.00
2013-3-15,41.2,35.8,31.8,34.9,30.4,22.8,95,81,68,30.06,29.82,15,2,15,0.04
2013-3-16,35.2,30.6,28.6,33.8,27.8,22.6,96,89,75,30.02,29.73,14,2,17,0.06
2013-3-17,31.6,27.9,22.5,25.0,19.0,12.7,85,70,52,30.25,30.02,19,3,19,0.04
2013-3-18,36.1,31.5,24.6,35.4,28.5,19.4,97,88,78,30.18,29.52,22,5,22,0.02
2013-3-19,36.0,28.4,24.1,33.1,20.8,15.6,90,73,63,29.93,29.61,28,10,31,0.02
2013-3-20,30.4,25.9,19.6,19.4,16.2,9.7,76,67,57,29.94,29.87,19,6,21,0.00
2013-3-21,32.5,25.0,16.3,25.0,18.5,10.9,86,76,63,29.92,29.85,23,6,23,0.00
2013-3-22,40.8,31.8,27.0,24.1,21.4,18.5,82,66,49,30.00,29.92,19,4,19,0.00
2013-3-23,40.5,31.4,21.4,27.1,24.0,19.4,94,75,55,30.08,29.99,12,1,14,0.00
2013-3-24,36.9,31.6,24.6,28.6,25.0,19.9,93,77,54,30.04,29.60,23,4,25,0.00
2013-3-25,39.4,34.7,30.6,31.6,28.0,24.8,92,77,65,29.87,29.52,23,6,23,0.00
2013-3-26,44.1,37.9,33.1,32.5,29.7,27.1,89,73,56,30.08,29.87,15,3,16,0.01
2013-3-27,46.4,39.2,31.5,31.3,27.8,25.5,84,65,46,30.17,30.08,21,6,21,0.00
2013-3-28,51.6,41.1,31.8,33.1,27.3,24.1,79,59,37,30.23,30.17,16,3,16,0.00
2013-3-29,52.9,41.8,31.8,29.7,24.5,20.8,76,52,29,30.25,30.15,12,1,15,0.00
2013-3-30,55.6,41.6,27.3,34.2,26.1,18.0,86,58,24,30.18,29.90,19,2,20,0.00
2013-3-31,59.4,47.4,36.9,44.2,35.8,30.9,87,66,36,29.90,29.57,21,4,24,0.02
2013-4-1,45.9,34.6,28.6,33.6,18.9,12.0,76,53,35,30.08,29.64,25,7,25,0.00
2013-4-2,42.3,32.2,23.7,19.8,15.5,13.1,77,52,31,30.23,30.08,24,5,24,0.00
2013-4-3,42.8,32.8,24.6,23.0,15.8,9.9,73,52,27,30.40,30.22,20,2,22,0.00
2013-4-4,53.8,38.8,26.1,27.1,20.8,15.3,76,52,22,30.35,29.92,13,2,13,0.00
2013-4-5,48.7,41.7,33.1,33.1,24.9,15.4,78,54,27,30.18,29.90,16,3,17,0.00
2013-4-6,49.3,39.1,30.4,32.9,23.7,16.5,72,55,37,30.24,29.77,19,4,22,0.00
2013-4-7,59.5,54.0,42.8,46.8,38.5,27.1,71,56,38,29.98,29.60,30,7,32,0.00
2013-4-8,69.3,48.5,35.1,58.3,41.9,31.6,92,79,60,30.01,29.65,24,3,32,0.10
2013-4-9,55.8,47.5,41.4,47.7,43.5,39.6,95,86,72,30.06,29.83,12,1,12,0.00
2013-4-10,49.3,43.8,40.6,46.6,42.3,39.6,97,94,90,29.94,29.80,17,3,18,0.35
2013-4-11,40.6,38.5,36.7,39.9,37.3,35.4,97,95,91,29.95,29.58,23,6,25,1.19
2013-4-12,42.3,39.4,36.7,40.3,36.5,33.3,97,90,73,29.76,29.49,24,5,26,0.65
2013-4-13,42.3,40.0,37.6,38.3,32.8,27.9,91,76,59,29.97,29.75,22,7,25,0.02
2013-4-14,47.8,40.1,32.0,37.4,33.3,29.5,93,77,62,30.10,29.91,15,2,15,0.01
2013-4-15,68.2,54.5,33.6,54.1,45.8,32.0,96,74,57,29.95,29.83,23,3,23,0.00
2013-4-16,61.2,55.9,49.6,54.1,45.6,34.0,95,71,39,30.16,29.81,16,2,20,0.30
2013-4-17,56.1,48.6,42.8,42.6,37.1,31.6,91,65,54,30.29,30.02,20,5,23,0.25
2013-4-18,80.2,59.7,44.4,65.7,54.9,41.9,95,85,56,30.03,29.53,33,5,34,1.01
2013-4-19,59.2,46.3,37.9,57.6,41.1,30.7,96,82,66,29.73,29.27,36,10,38,0.28
2013-4-20,41.4,36.0,29.8,32.7,24.4,19.0,92,64,47,30.42,29.73,23,6,24,0.02
2013-4-21,45.9,36.3,24.6,32.5,25.9,20.8,95,68,41,30.61,30.42,16,2,16,0.00
2013-4-22,60.4,45.9,30.6,38.5,30.7,18.3,96,61,22,30.45,30.16,11,1,13,0.00
2013-4-23,70.3,55.5,39.7,54.9,43.6,34.5,95,67,40,30.16,29.75,25,2,25,0.11
2013-4-24,56.5,42.6,36.1,54.9,39.9,30.4,97,90,74,30.11,29.65,21,4,21,0.55
2013-4-25,52.0,42.4,34.2,40.8,32.8,28.0,87,70,44,30.32,30.09,24,5,24,0.07
2013-4-26,55.4,44.6,29.8,39.7,33.9,27.5,93,68,47,30.43,30.31,13,2,17,0.00
2013-4-27,66.0,53.3,36.0,45.9,37.7,31.6,97,61,30,30.34,30.05,12,2,12,0.00
2013-4-28,54.3,51.7,46.9,53.6,47.0,34.0,98,85,52,30.05,29.79,15,2,15,0.20
2013-4-29,67.5,58.2,53.2,56.7,53.7,51.4,99,86,63,29.90,29.78,11,1,11,0.02
2013-4-30,69.1,60.4,52.2,57.4,54.4,51.1,96,81,64,30.04,29.89,21,2,21,0.01
2013-5-1,78.3,65.0,52.9,59.7,54.7,50.5,93,71,45,30.17,30.02,15,2,15,0.00
2013-5-2,76.5,64.0,51.4,55.4,50.2,41.5,93,63,42,30.20,30.08,16,3,17,0.00
2013-5-3,74.8,65.3,54.5,54.9,45.7,33.3,74,52,22,30.08,30.00,16,4,21,0.00
2013-5-4,70.3,62.9,58.3,49.1,42.2,34.3,67,48,31,30.08,30.00,17,5,19,0.00
2013-5-5,71.4,62.4,52.9,45.7,40.7,34.0,73,47,27,30.06,29.96,18,3,18,0.00
2013-5-6,72.3,61.7,47.8,51.3,44.8,39.9,82,55,36,30.01,29.92,14,2,16,0.00
2013-5-7,74.8,62.6,49.1,55.2,49.4,38.8,89,64,40,30.00,29.92,19,2,19,0.00
2013-5-8,78.1,65.0,54.0,56.3,51.5,44.2,91,64,40,29.96,29.87,15,1,15,0.00
2013-5-9,80.2,66.0,49.6,58.8,50.6,44.4,98,63,31,29.91,29.84,11,1,12,0.00
2013-5-10,73.8,61.5,44.2,62.1,54.9,40.1,96,80,58,29.86,29.67,23,4,24,0.18
2013-5-11,60.3,47.7,39.7,48.6,42.1,34.2,91,81,60,29.87,29.70,23,4,24,0.04
2013-5-12,48.9,41.9,34.0,34.7,30.8,26.1,87,66,46,30.07,29.85,26,6,26,0.00
2013-5-13,54.9,41.5,26.8,35.1,27.3,22.5,95,62,29,30.15,30.06,17,2,18,0.00
2013-5-14,71.8,57.4,41.0,53.8,43.8,34.7,79,61,44,30.08,29.66,15,2,17,0.00
2013-5-15,83.7,72.9,56.1,61.0,52.2,45.0,92,53,29,29.72,29.54,23,4,28,0.00
2013-5-16,82.6,68.4,50.2,49.8,46.2,38.3,89,49,25,29.96,29.70,18,2,18,0.00
2013-5-17,71.4,61.0,49.1,48.2,43.2,36.7,79,53,35,30.10,29.95,16,2,16,0.00
2013-5-18,78.3,65.0,51.6,51.8,46.7,40.8,81,53,30,30.09,29.98,16,2,16,0.00
2013-5-19,84.6,68.7,54.3,65.3,57.3,46.0,84,68,47,29.99,29.84,12,2,13,0.00
2013-5-20,88.3,74.8,61.2,72.0,65.4,58.8,95,75,44,29.87,29.71,19,2,20,0.05
2013-5-21,86.2,77.1,68.2,68.9,64.2,59.5,90,66,43,29.76,29.64,22,3,22,0.01
2013-5-22,82.0,70.8,62.1,65.7,62.8,59.0,93,77,47,29.68,29.55,30,4,34,0.05
2013-5-23,66.6,55.0,42.4,61.2,52.5,38.8,96,91,79,30.09,29.63,20,4,20,0.46
2013-5-24,55.4,46.4,39.6,39.0,36.1,32.2,90,69,47,30.31,30.09,17,3,19,0.00
2013-5-25,65.5,50.6,33.6,42.1,37.1,32.2,97,65,34,30.37,30.23,13,1,13,0.00
2013-5-26,69.8,54.2,34.5,44.1,36.9,32.0,97,58,26,30.31,30.18,12,1,14,0.00
2013-5-27,59.2,50.8,42.3,50.9,44.7,34.0,96,81,51,30.23,29.98,13,1,13,0.32
2013-5-28,78.4,64.0,50.9,70.5,60.6,49.8,98,90,74,29.98,29.76,19,2,21,0.40
2013-5-29,84.7,76.6,68.5,68.4,65.1,61.5,91,69,47,29.93,29.73,24,5,24,0.00
2013-5-30,86.7,73.7,64.9,73.0,67.0,62.2,96,81,54,30.00,29.89,26,2,29,0.60
2013-5-31,82.2,72.4,64.9,70.3,67.1,63.5,97,85,62,29.94,29.81,24,3,26,0.66
2013-6-1,79.5,71.1,63.5,67.8,64.9,62.1,96,82,63,29.83,29.63,22,3,22,0.17
2013-6-2,72.9,66.2,55.8,66.4,58.9,46.6,96,78,64,29.91,29.60,21,4,21,0.00
2013-6-3,67.5,57.2,46.2,48.2,42.3,35.6,86,60,36,30.04,29.91,12,1,13,0.00
2013-6-4,69.4,59.0,46.8,51.6,46.0,34.0,95,65,41,30.15,30.03,10,1,11,0.00
2013-6-5,72.7,60.6,48.6,52.0,46.1,38.3,85,61,35,30.12,29.93,15,1,15,0.00
2013-6-6,68.4,60.5,53.8,55.6,49.6,42.8,88,68,60,29.94,29.79,14,2,14,0.00
2013-6-7,61.9,57.1,50.7,54.1,51.9,48.6,94,83,75,29.86,29.80,11,0,11,0.00
2013-6-8,71.1,62.5,55.6,56.8,53.9,51.8,91,75,54,30.02,29.85,9,0,9,0.00
2013-6-9,75.4,66.0,55.4,59.9,56.7,52.9,96,74,52,30.06,29.89,18,2,19,0.00
2013-6-10,69.1,64.8,60.6,67.5,63.4,57.9,97,95,81,29.89,29.67,9,0,13,0.53
2013-6-11,81.3,71.2,63.1,68.2,64.7,62.2,98,81,56,29.83,29.70,14,2,15,0.02
2013-6-12,75.2,69.6,61.5,68.4,65.2,60.1,96,86,74,29.87,29.57,13,0,13,0.30
2013-6-13,76.8,67.8,61.2,64.2,60.2,55.6,97,80,50,29.74,29.44,18,3,19,1.94
2013-6-22,85.8,72.3,70.5,73.2,68.8,67.8,93,89,66,30.01,29.92,17,1,17,0.87
2013-6-23,89.1,78.3,69.4,73.4,69.5,64.0,96,76,53,30.01,29.89,27,3,27,0.01
2013-6-24,86.7,78.0,67.3,72.5,69.2,64.9,94,75,58,30.01,29.85,16,3,18,0.01
2013-6-25,85.3,75.2,67.5,74.8,69.5,64.4,95,83,69,29.94,29.74,15,2,18,0.25
2013-6-26,82.6,73.4,66.6,72.5,68.7,65.1,97,86,68,29.85,29.67,17,2,18,0.45
2013-6-27,82.2,72.2,65.8,72.0,68.7,64.9,98,90,66,29.70,29.56,15,1,17,0.81
2013-6-28,76.6,66.8,62.6,68.2,64.3,59.2,99,92,67,29.57,29.45,17,1,20,1.08
2013-6-29,63.9,63.5,63.0,63.1,62.7,62.1,98,97,96,29.50,29.47,0,0,0,0.00
2013-7-19,84.6,75.2,73.4,75.7,71.7,69.1,92,89,75,29.70,29.65,14,2,24,0.80
2013-7-20,86.0,76.9,68.9,75.0,68.1,61.7,98,77,48,29.85,29.64,32,1,32,1.31
2013-7-21,84.6,73.6,64.4,68.5,63.3,56.8,92,72,49,29.93,29.83,7,0,7,0.00
2013-7-22,81.7,72.9,68.4,70.7,67.7,65.8,94,85,60,29.89,29.69,8,0,9,0.07
2013-7-23,85.5,71.4,62.4,72.0,66.2,53.6,97,85,60,29.81,29.60,20,2,23,0.61
2013-7-24,73.0,63.6,55.4,55.9,51.7,47.5,91,66,48,29.99,29.81,13,2,16,0.00
2013-7-25,75.4,63.3,49.6,59.0,55.1,48.7,98,77,55,30.06,29.99,10,0,10,0.00
2013-7-26,78.4,67.2,54.7,63.3,58.7,53.8,98,77,52,30.05,29.84,14,0,15,0.00
2013-7-27,75.0,66.9,58.6,67.6,62.7,53.8,94,87,71,29.84,29.66,15,2,19,0.08
2013-7-28,67.1,58.7,51.4,57.4,52.9,50.0,96,82,61,29.94,29.78,19,4,19,0.07
2013-7-29,70.0,61.6,55.2,58.3,54.9,52.3,94,80,58,30.13,29.94,15,2,15,0.01
2013-7-30,77.5,64.5,50.5,63.0,57.5,49.6,98,80,51,30.19,30.07,9,0,10,0.00
2013-7-31,77.2,69.0,61.7,68.0,64.9,60.1,97,87,67,30.07,29.81,13,1,13,0.13
2013-8-1,79.9,69.1,61.2,66.4,62.1,57.0,97,80,46,29.86,29.80,15,1,16,0.13
2013-8-2,72.3,65.0,55.8,65.1,59.5,53.4,95,83,67,29.88,29.79,21,2,21,0.00
2013-8-3,78.3,69.5,58.8,64.0,58.9,52.5,98,72,42,29.97,29.83,15,1,15,0.00
2013-8-4,74.1,64.9,55.2,58.8,54.5,50.4,95,71,47,30.09,29.97,14,2,15,0.00
2013-8-5,72.1,65.1,56.3,61.7,56.7,51.1,90,75,56,30.06,29.91,10,0,10,0.00
2013-8-6,78.1,69.7,63.9,68.7,64.1,60.4,95,83,66,29.91,29.83,13,1,13,0.02
2013-8-7,84.6,73.1,66.6,72.9,67.8,64.0,95,84,63,29.85,29.76,14,1,14,0.04
2013-8-8,77.7,70.8,66.7,70.7,65.7,59.5,96,84,70,29.94,29.82,13,1,15,0.00
2013-8-9,80.1,70.5,61.2,63.3,58.5,53.8,88,68,44,29.94,29.88,11,1,13,0.00
2013-8-10,77.4,69.1,60.6,65.8,61.8,58.5,97,79,58,30.06,29.94,8,0,8,0.00
2013-8-11,79.7,68.2,54.3,65.7,59.8,53.2,97,76,50,30.06,29.96,11,1,12,0.00
2013-8-12,73.8,66.5,64.0,68.7,63.8,61.2,97,91,80,29.99,29.78,12,1,19,0.54
2013-8-13,67.3,62.8,56.5,64.0,54.8,46.9,98,77,53,29.99,29.75,13,2,18,0.47
2013-8-14,71.8,59.1,49.6,55.6,50.3,46.4,94,74,49,30.11,29.99,8,2,12,0.00
2013-8-15,73.9,60.1,47.5,57.7,52.3,46.4,98,79,46,30.13,30.04,9,1,11,0.01
2013-8-16,79.3,65.2,52.3,59.2,55.5,50.9,97,74,39,30.14,30.06,7,0,9,0.00
2013-8-17,79.0,66.0,52.2,64.4,57.1,51.3,98,76,43,30.20,30.13,7,0,9,0.00
2013-8-18,80.1,67.7,56.5,67.5,59.8,55.6,98,79,49,30.16,30.05,9,1,13,0.01
2013-8-19,82.2,68.8,56.1,65.5,60.2,55.2,98,77,44,30.06,29.97,10,1,12,0.00
2013-8-20,84.9,72.1,60.4,68.2,64.6,59.5,98,79,52,30.09,30.00,9,1,14,0.01
2013-8-21,85.6,74.8,64.8,70.7,67.1,63.0,95,78,53,30.08,29.92,11,1,14,0.00
2013-8-22,81.5,74.7,69.3,71.2,69.0,66.9,96,83,66,29.98,29.89,9,1,13,0.17
2013-8-23,82.0,72.3,61.2,68.7,58.7,50.0,92,66,34,30.13,29.95,7,1,11,0.00
2013-8-24,80.1,68.5,55.0,64.9,58.9,54.0,98,74,47,30.25,30.13,8,1,12,0.00
2013-8-25,85.6,71.5,55.8,66.0,61.8,54.9,98,74,46,30.24,30.08,13,2,16,0.00
2013-8-26,87.1,76.6,66.2,74.1,68.0,62.4,88,75,61,30.10,29.90,12,3,17,0.00
2013-8-27,82.9,76.6,71.8,76.8,72.7,70.0,96,88,76,29.93,29.77,12,1,17,0.33
2013-8-28,82.6,77.0,70.9,75.0,72.7,68.2,97,87,71,29.92,29.71,10,1,16,0.33
2013-8-29,86.5,75.0,65.7,74.5,69.2,64.8,98,83,59,30.01,29.92,6,0,11,0.01
2013-8-30,87.1,75.1,63.1,72.3,68.2,62.2,99,81,58,29.94,29.68,15,2,18,0.03
2013-8-31,80.4,73.5,69.1,72.3,69.5,66.6,97,88,71,29.76,29.65,9,0,36,0.90
2013-9-1,80.8,72.9,67.8,73.9,69.2,65.8,95,88,76,29.78,29.65,7,0,9,0.00
2013-9-2,75.9,70.2,62.2,70.3,63.3,52.5,97,80,59,29.84,29.65,12,2,17,0.01
2013-9-3,74.1,63.6,58.1,58.5,55.0,52.0,93,75,55,29.96,29.83,11,2,17,0.00
2013-9-4,80.2,66.8,53.4,63.7,58.6,52.2,97,77,53,30.03,29.94,14,2,17,0.01
2013-9-5,71.8,64.2,54.9,62.6,53.3,44.2,95,70,45,30.20,30.00,9,2,12,0.00
2013-9-6,73.4,59.8,44.8,55.2,49.0,37.0,98,72,30,30.23,30.02,7,0,10,0.00
2013-9-7,80.8,66.4,54.1,70.7,61.2,52.0,96,84,67,30.03,29.83,9,1,13,0.03
2013-9-8,72.9,68.1,57.4,67.5,60.3,52.9,93,77,52,30.01,29.85,12,1,16,0.01
2013-9-9,74.1,63.9,53.1,69.6,61.7,51.6,97,93,85,30.01,29.86,5,0,10,0.15
2013-9-10,93.0,81.5,70.5,76.6,72.3,67.1,97,75,49,29.94,29.83,15,3,16,0.00
2013-9-11,91.9,78.9,69.4,75.7,70.7,66.7,95,77,55,29.96,29.82,12,2,26,0.07
2013-9-12,77.7,69.3,59.0,68.5,62.2,49.6,97,80,48,29.89,29.77,13,2,29,0.07
2013-9-13,60.1,54.8,42.1,49.8,45.8,40.3,93,72,55,30.09,29.89,12,3,19,0.00
2013-9-14,67.5,51.3,37.4,50.0,42.5,36.3,98,76,37,30.16,30.05,6,0,10,0.00
2013-9-15,65.5,55.4,46.9,57.9,51.0,45.9,97,86,64,30.08,30.00,9,1,10,0.03
2013-9-16,63.9,56.0,49.1,54.7,50.1,43.3,98,82,56,30.32,30.07,11,1,14,0.01
2013-9-17,66.6,53.1,39.6,52.5,45.2,38.1,97,77,47,30.36,30.18,8,1,13,0.00
2013-9-18,73.2,58.0,45.1,60.6,52.6,44.1,98,84,55,30.18,30.00,8,0,10,0.00
2013-9-19,78.4,67.8,57.0,69.1,64.3,55.2,98,89,72,30.00,29.86,10,1,13,0.00
2013-9-20,82.4,71.5,67.8,72.9,68.3,66.2,97,90,69,29.87,29.67,12,2,18,0.20
2013-9-21,68.2,62.8,55.8,67.1,56.7,47.1,97,82,56,29.81,29.61,22,3,22,0.32
2013-9-22,60.6,54.8,50.7,47.1,43.4,40.1,77,66,53,30.03,29.81,11,2,15,0.00
2013-9-23,62.4,52.2,42.3,48.9,44.2,40.6,96,76,52,30.14,30.03,9,1,12,0.00
2013-9-24,66.6,52.9,42.4,54.1,48.3,41.4,98,86,61,30.11,29.95,6,0,12,0.00
2013-9-25,71.8,55.9,44.2,58.1,51.2,43.5,98,86,61,29.97,29.89,7,0,12,0.02
2013-9-26,73.6,58.4,45.5,57.0,49.6,44.4,98,77,36,30.09,29.94,8,1,13,0.01
2013-9-27,73.8,58.6,46.0,61.9,54.0,45.3,99,86,60,30.19,30.09,10,1,12,0.01
2013-9-28,74.5,62.1,49.8,63.0,55.2,48.9,99,80,51,30.15,29.97,10,1,13,0.01
2013-9-29,65.5,61.8,59.2,61.9,58.5,54.9,97,89,77,29.98,29.90,8,0,9,0.09
2013-9-30,71.1,62.2,56.8,60.1,57.1,52.9,99,85,53,29.96,29.87,15,1,15,0.01
2013-10-1,72.0,60.9,52.3,63.5,58.1,51.4,98,91,73,29.98,29.89,16,2,21,0.01
2013-10-2,80.2,66.8,55.8,62.1,57.2,49.5,97,75,37,30.02,29.90,9,1,12,0.00
2013-10-3,77.7,66.1,54.3,69.4,62.6,53.1,96,89,71,30.00,29.87,11,0,16,0.00
2013-10-4,80.4,71.5,66.7,69.1,66.4,64.4,93,85,60,29.96,29.89,9,1,16,0.00
2013-10-5,73.2,68.3,64.0,69.1,65.8,62.6,97,92,81,29.99,29.81,9,0,13,0.00
2013-10-6,72.0,66.2,56.5,67.8,64.3,55.0,97,94,81,29.81,29.57,11,1,16,0.38
2013-10-7,59.0,51.9,45.1,55.4,47.3,42.1,96,85,68,30.08,29.63,15,5,23,0.03
2013-10-8,65.1,51.4,39.9,50.5,44.0,37.6,98,80,37,30.25,30.08,7,0,11,0.01
2013-10-9,68.2,53.6,41.4,57.6,46.5,40.6,99,80,47,30.27,30.17,10,1,12,0.01
2013-10-10,71.2,53.8,41.0,56.5,46.7,40.3,99,80,41,30.19,30.08,9,1,10,0.00
2013-10-11,72.5,55.1,40.3,55.6,48.2,39.6,98,81,46,30.11,30.03,6,1,9,0.01
2013-10-12,74.1,60.5,48.0,64.2,55.0,47.1,99,84,40,30.06,30.00,8,1,14,0.01
2013-10-13,68.7,60.3,47.7,61.2,49.0,41.0,97,70,37,30.28,30.03,8,1,13,0.00
2013-10-14,63.1,51.1,42.3,48.2,44.5,41.0,97,80,55,30.36,30.23,8,1,11,0.01
2013-10-15,62.4,52.8,39.9,61.2,51.0,38.8,99,94,84,30.23,29.80,10,1,14,0.08
2013-10-16,62.8,58.6,52.3,61.5,52.4,45.3,97,81,57,29.87,29.77,15,5,21,0.11
2013-10-17,52.3,49.7,46.6,49.6,46.9,44.6,94,90,82,29.86,29.72,14,3,17,0.11
2013-10-18,63.3,51.3,41.7,47.7,44.1,40.5,95,78,49,29.88,29.80,13,3,20,0.01
2013-10-19,47.7,43.3,38.8,45.0,41.1,37.2,96,92,84,29.87,29.71,8,2,18,0.25
2013-10-20,60.3,49.1,39.7,46.0,40.8,37.2,94,75,50,29.89,29.81,14,4,19,0.00
2013-10-21,55.9,51.9,40.8,49.3,44.7,36.3,92,77,65,29.84,29.76,15,5,22,0.08
2013-10-22,50.4,41.8,33.4,36.5,32.9,29.7,86,72,49,29.90,29.81,12,4,20,0.00
2013-10-23,47.7,39.6,31.5,36.7,32.2,26.8,96,77,45,29.90,29.78,15,3,19,0.02
2013-10-24,46.8,38.0,30.4,36.5,31.3,27.5,95,79,47,30.14,29.89,13,3,17,0.02
2013-10-25,47.7,38.5,30.0,37.2,31.5,28.8,96,77,51,30.30,30.11,14,3,19,0.01
2013-10-26,50.2,43.0,38.1,39.4,32.8,28.8,95,68,58,30.11,29.76,23,8,28,0.05
2013-10-27,53.1,41.2,30.6,37.2,33.7,29.3,96,77,50,30.05,29.96,13,2,14,0.02
2013-10-28,51.6,42.0,31.8,42.6,35.4,29.1,92,78,66,30.35,30.00,13,2,13,0.00
2013-10-29,51.3,43.8,37.6,40.1,36.1,32.7,92,75,58,30.40,30.21,8,1,10,0.00
2013-10-30,61.7,46.7,31.5,52.3,41.0,30.4,98,82,49,30.21,29.92,10,1,12,0.15
2013-10-31,63.1,59.9,53.8,61.5,58.4,52.3,98,95,89,29.93,29.12,19,3,25,1.44
2013-11-1,61.3,50.4,45.9,59.7,45.6,40.8,95,84,74,29.63,29.09,26,8,35,0.31
2013-11-2,48.0,44.9,37.8,44.8,41.5,33.4,97,88,77,30.06,29.61,11,3,15,0.12
2013-11-3,45.0,38.8,31.8,36.5,33.1,30.0,95,81,63,30.42,30.06,8,1,11,0.00
2013-11-4,47.8,41.8,34.2,38.8,33.8,30.2,92,74,51,30.45,30.28,14,4,17,0.00
2013-11-5,55.9,50.0,42.6,48.9,44.3,38.8,91,81,70,30.33,30.14,7,0,10,0.00
2013-11-6,58.8,53.4,44.8,53.6,47.7,39.4,91,81,68,30.14,29.78,18,5,28,0.07
2013-11-7,45.0,41.5,36.3,39.2,32.2,25.9,91,71,51,30.09,29.93,19,5,25,0.02
2013-11-8,45.5,37.5,32.7,33.6,29.4,25.7,90,74,47,30.26,30.09,10,2,14,0.00
2013-11-9,57.4,49.0,38.3,42.6,37.6,32.5,84,65,55,30.16,29.77,21,7,34,0.00
2013-11-10,49.6,44.0,34.5,40.1,32.1,28.9,82,63,53,30.24,29.86,17,6,28,0.00
2013-11-11,44.8,37.6,28.9,39.6,32.5,21.4,95,82,71,30.28,29.99,14,5,23,0.15
2013-11-12,34.5,29.5,24.4,23.2,19.8,17.1,81,67,51,30.52,30.28,15,5,19,0.02
2013-11-13,38.1,30.0,20.7,25.7,20.7,16.9,88,69,45,30.53,30.16,21,6,27,0.00
2013-11-14,51.1,40.1,30.7,27.3,24.0,21.0,71,54,35,30.17,29.98,21,9,24,0.00
2013-11-15,50.9,44.8,40.3,32.9,28.9,25.2,64,54,46,30.05,29.97,12,3,19,0.00
2013-11-16,56.5,47.5,34.9,51.8,42.8,31.3,93,84,64,30.07,29.79,12,2,14,0.00
2013-11-17,63.9,57.8,48.4,59.0,54.1,41.5,95,88,69,29.79,29.22,28,7,46,0.93
2013-11-18,48.7,41.8,35.6,41.7,32.5,25.0,79,69,63,30.10,29.45,24,10,39,0.02
2013-11-19,41.9,35.3,27.1,26.2,24.4,22.6,88,65,47,30.38,30.10,11,2,18,0.00
2013-11-20,44.6,37.4,26.1,34.2,28.6,23.2,92,72,49,30.42,30.22,14,3,18,0.00
2013-11-21,45.3,43.4,41.2,43.2,37.6,31.3,95,80,64,30.27,30.18,11,1,14,0.06